TimeEST,TemperatureF,Dew PointF,Humidity,Sea Level PressureIn,VisibilityMPH,Wind Direction,Wind SpeedMPH,Gust SpeedMPH,PrecipitationIn,Events,Conditions,WindDirDegrees,DateUTC
12:52 AM,41.0,21.0,45,29.93,10.0,NNW,9.2,-,N/A,,Overcast,330,2012-11-08 05:52:00
1:52 AM,41.0,19.0,41,29.93,10.0,NNW,11.5,-,N/A,,Mostly Cloudy,330,2012-11-08 06:52:00
2:52 AM,41.0,19.0,41,29.92,10.0,NW,11.5,-,N/A,,Overcast,310,2012-11-08 07:52:00
3:52 AM,41.0,17.1,38,29.92,10.0,NW,12.7,21.9,N/A,,Clear,320,2012-11-08 08:52:00
4:52 AM,39.9,16.0,38,29.93,10.0,NNW,11.5,20.7,N/A,,Partly Cloudy,330,2012-11-08 09:52:00
5:52 AM,39.0,15.1,38,29.94,10.0,NNW,11.5,-,N/A,,Partly Cloudy,330,2012-11-08 10:52:00
6:52 AM,39.9,14.0,35,29.95,10.0,NNW,15.0,21.9,N/A,,Scattered Clouds,330,2012-11-08 11:52:00
7:52 AM,41.0,15.1,35,29.97,10.0,NNW,16.1,-,N/A,,Mostly Cloudy,330,2012-11-08 12:52:00
8:52 AM,42.1,14.0,32,29.99,10.0,NNW,15.0,20.7,N/A,,Mostly Cloudy,330,2012-11-08 13:52:00
9:52 AM,46.0,14.0,28,29.99,10.0,NW,17.3,23.0,N/A,,Mostly Cloudy,320,2012-11-08 14:52:00
10:52 AM,48.0,14.0,26,29.99,10.0,NW,20.7,-,N/A,,Scattered Clouds,310,2012-11-08 15:52:00
11:52 AM,51.1,12.9,22,29.98,10.0,NNW,15.0,27.6,N/A,,Partly Cloudy,330,2012-11-08 16:52:00
12:52 PM,53.1,14.0,21,29.96,10.0,NNW,20.7,26.5,N/A,,Partly Cloudy,330,2012-11-08 17:52:00
1:52 PM,54.0,8.1,16,29.95,10.0,NNW,24.2,31.1,N/A,,Partly Cloudy,340,2012-11-08 18:52:00
2:52 PM,54.0,8.1,16,29.95,10.0,NNW,20.7,29.9,N/A,,Partly Cloudy,330,2012-11-08 19:52:00
3:52 PM,53.1,10.9,19,29.96,10.0,NNW,17.3,-,N/A,,Partly Cloudy,340,2012-11-08 20:52:00
4:52 PM,50.0,12.9,23,29.98,10.0,NNW,11.5,-,N/A,,Partly Cloudy,330,2012-11-08 21:52:00
5:52 PM,48.0,15.1,27,30.01,10.0,NW,10.4,-,N/A,,Clear,320,2012-11-08 22:52:00
6:52 PM,45.0,19.9,37,30.03,10.0,NW,12.7,-,N/A,,Clear,310,2012-11-08 23:52:00
7:52 PM,44.1,25.0,47,30.05,10.0,NW,8.1,-,N/A,,Clear,310,2012-11-09 00:52:00
8:52 PM,45.0,26.1,48,30.06,10.0,NW,11.5,-,N/A,,Clear,320,2012-11-09 01:52:00
9:52 PM,44.1,27.0,51,30.08,10.0,NW,11.5,-,N/A,,Clear,310,2012-11-09 02:52:00
10:52 PM,43.0,28.0,56,30.07,10.0,NW,10.4,-,N/A,,Clear,320,2012-11-09 03:52:00
11:52 PM,42.1,28.9,60,30.08,10.0,NW,10.4,-,N/A,,Clear,310,2012-11-09 04:52:00